Weather observations for the past three days for
Kahului, Kahului Airport
Imperial (Metric)
Date Time (hst) Wind (mph) Vis. (mi.) Weather Sky Cond. Temperature (ºF) Relative Humidity Wind Chill (°F) Heat Index (°F) Pressure Precipitation (in)
Air Dwpt 6 hour altimeter (in) sea level (mb) 1 hr 3 hr 6 hr
Max. Min.
13 09:54 NE 18 G 31 10.00 A Few Clouds FEW035 FEW050 82 64 55% 84 30.07 1018.6
13 08:54 NE 21 G 30 10.00 A Few Clouds and Breezy FEW035 80.1 66 62% 82 30.07 1018.7
13 07:54 NE 16 G 26 10.00 A Few Clouds FEW040 78.1 66 79 71.1 67% 80 30.07 1018.6
13 06:54 NE 14 10.00 A Few Clouds FEW038 75.9 64 67% 78 30.05 1018.2
13 05:54 N 8 10.00 A Few Clouds FEW045 71.1 62.1 73% 30.04 1017.6
13 04:54 E 14 G 26 10.00 Fair CLR 72 64 76% 30.02 1017.1
13 03:54 NE 17 10.00 Fair CLR 73 64.9 76% 30.01 1016.8
13 02:54 NE 14 10.00 Fair CLR 73 64.9 76% 30.01 1016.7
13 01:54 NE 13 10.00 Fair CLR 73 66 75.9 73 79% 30.02 1017.1
13 00:54 NE 15 10.00 Partly Cloudy SCT055 73.9 68 82% 30.03 1017.5
12 23:54 NE 14 10.00 A Few Clouds FEW055 75 66.9 76% 76 30.05 1017.9
12 22:54 NE 15 10.00 Fair CLR 73.9 64 71% 30.05 1018.2
12 21:54 NE 17 10.00 Fair CLR 75 66 74% 76 30.05 1018.2
12 20:54 NE 15 10.00 A Few Clouds FEW030 75 64.9 71% 77 30.04 1017.7
12 19:54 NE 14 10.00 Fair CLR 75.9 64.9 82.9 75.9 69% 78 30.03 1017.2
12 18:54 NE 14 10.00 Partly Cloudy FEW015 SCT030 77 66 69% 79 30.02 1016.9
12 17:54 NE 16 G 24 10.00 Partly Cloudy FEW015 SCT030 79 66.9 67% 81 30 1016.4
12 16:54 NE 17 G 30 10.00 Partly Cloudy FEW012 SCT030 80.1 68 67% 83 30 1016.3
12 15:54 NE 24 10.00 A Few Clouds and Breezy FEW015 FEW035 80.1 70 71% 83 30.01 1016.5
12 14:54 N 24 10.00 Partly Cloudy and Breezy FEW015 SCT040 82 70 67% 86 30.02 1017.2
12 13:54 N 24 10.00 Partly Cloudy and Breezy FEW025 SCT050 82.9 69.1 84.9 79 63% 87 30.03 1017.5
12 12:54 N 22 10.00 Partly Cloudy and Breezy FEW025 SCT060 82.9 71.1 67% 88 30.05 1018.0
12 11:54 N 25 10.00 A Few Clouds and Breezy FEW025 FEW045 84 71.1 65% 89 30.05 1018.2
12 10:54 N 26 10.00 Partly Cloudy and Windy FEW030 SCT040 84 70 63% 88 30.06 1018.5
12 09:54 NE 23 10.00 A Few Clouds and Breezy FEW030 82.9 70 65% 87 30.07 1018.7
12 08:54 N 18 G 29 10.00 A Few Clouds FEW020 82.9 69.1 63% 87 30.07 1018.7
12 07:54 NE 18 G 24 10.00 Partly Cloudy FEW025 SCT040 79 68 79 73 69% 81 30.07 1018.6
12 06:54 NE 10 10.00 Partly Cloudy FEW025 SCT040 75.9 68 77% 77 30.06 1018.4
12 05:54 NE 9 10.00 Partly Cloudy FEW015 SCT030 SCT040 73 69.1 87% 30.05 1018.0
12 04:54 N 12 10.00 A Few Clouds FEW065 73.9 70 88% 30.04 1017.7
12 03:54 NE 15 10.00 Mostly Cloudy FEW049 BKN060 73.9 69.1 85% 30.03 1017.5
12 02:54 NE 10 10.00 Partly Cloudy SCT055 73.9 69.1 85% 30.04 1017.6
12 01:54 NE 9 10.00 Fair CLR 73.9 69.1 75.9 73 85% 30.05 1017.9
12 00:54 NE 12 10.00 Fair CLR 75 66.9 76% 76 30.05 1018.2
11 23:54 NE 12 10.00 Fair CLR 75 66 74% 76 30.07 1018.6
11 22:54 NE 12 G 21 10.00 A Few Clouds FEW030 75 66 74% 76 30.09 1019.3
11 21:54 NE 15 10.00 A Few Clouds FEW030 75.9 68 77% 77 30.08 1018.9
11 20:54 NE 17 G 23 10.00 A Few Clouds FEW030 75.9 68 77% 77 30.07 1018.8
11 19:54 NE 21 G 30 10.00 A Few Clouds and Breezy FEW035 75.9 69.1 88 75.9 79% 77 30.05 1018.1
11 18:54 NE 23 G 31 10.00 A Few Clouds and Breezy FEW035 77 66.9 71% 79 30.03 1017.3
11 17:54 NE 22 G 37 10.00 A Few Clouds and Breezy FEW035 81 66.9 62% 83 30 1016.5
11 16:54 NE 23 G 32 10.00 A Few Clouds and Breezy FEW045 82.9 66.9 59% 86 30.01 1016.7
11 15:54 NE 25 G 33 10.00 A Few Clouds and Breezy FEW045 84 66.9 57% 87 30.01 1016.8
11 14:54 NE 24 G 38 10.00 A Few Clouds and Breezy FEW045 87.1 64.9 48% 89 30.01 1016.8
11 13:54 N 28 G 38 10.00 A Few Clouds and Windy FEW035 84 69.1 84.9 77 61% 88 30.03 1017.5
11 12:54 N 30 10.00 Partly Cloudy and Windy FEW020 SCT055 82.9 69.1 63% 87 30.06 1018.3
11 11:54 N 26 10.00 A Few Clouds and Windy FEW040 82 70 67% 86 30.08 1019.1
11 10:54 NE 25 G 33 10.00 Partly Cloudy and Breezy FEW030 SCT045 82 68 63% 85 30.09 1019.4
11 09:54 NE 21 10.00 Partly Cloudy and Breezy SCT020 79 69.1 72% 82 30.11 1020.1
11 08:54 NE 22 G 30 10.00 Partly Cloudy and Breezy FEW020 SCT040 78.1 69.1 74% 80 30.11 1020.0
11 07:54 N 18 10.00 A Few Clouds FEW043 79 66 80.1 72 65% 81 30.1 1019.9
11 06:54 N 12 10.00 Partly Cloudy SCT035 77 66 69% 79 30.11 1020.0
11 05:54 N 12 10.00 Partly Cloudy FEW030 SCT050 73 64 74% 30.1 1019.7
11 04:54 N 10 10.00 Fair CLR 72 62.1 71% 30.09 1019.4
11 03:54 N 10 10.00 Fair CLR 73 63 71% 30.09 1019.5
11 02:54 NE 9 10.00 Fair CLR 73 62.1 69% 30.09 1019.3
11 01:54 NE 10 G 21 10.00 Fair CLR 73.9 64.9 75.9 73 74% 30.1 1019.8
11 00:54 NE 13 10.00 Fair CLR 73.9 66 76% 30.11 1020.2
10 23:54 NE 13 10.00 A Few Clouds FEW050 73.9 66.9 79% 30.13 1020.7
10 22:54 NE 16 G 25 10.00 Fair CLR 75 66.9 76% 76 30.14 1021.1
10 21:54 NE 16 G 32 10.00 A Few Clouds FEW040 75.9 66 72% 77 30.13 1020.8
10 20:54 NE 20 G 30 10.00 A Few Clouds FEW050 75 66.9 76% 76 30.11 1020.2
10 19:54 NE 17 G 28 10.00 A Few Clouds FEW040 75.9 66 86 75.9 72% 77 30.1 1019.9
10 18:54 NE 18 G 30 10.00 A Few Clouds FEW030 FEW065 77 66 69% 79 30.08 1019.2
10 17:54 NE 22 G 36 10.00 A Few Clouds and Breezy FEW035 FEW045 80.1 64 58% 82 30.07 1018.6
10 16:54 NE 22 G 35 10.00 A Few Clouds and Breezy FEW040 82.9 64.9 55% 85 30.05 1017.9
10 15:54 NE 28 G 43 10.00 Partly Cloudy and Windy FEW040 SCT060 82.9 64 53% 84 30.04 1017.8
10 14:54 NE 28 G 44 10.00 A Few Clouds and Windy FEW030 FEW045 84.9 66 53% 87 30.05 1018.1
10 13:54 NE 23 G 40 10.00 A Few Clouds and Breezy FEW030 FEW050 84.9 66 87.1 78.1 53% 87 30.06 1018.5
10 12:54 NE 24 G 40 10.00 A Few Clouds and Breezy FEW035 FEW050 86 66.9 53% 89 30.07 1018.9
10 11:54 NE 24 G 44 10.00 A Few Clouds and Breezy FEW035 FEW050 84 66.9 57% 87 30.09 1019.5
10 10:54 NE 26 G 41 10.00 Partly Cloudy and Windy FEW035 SCT045 82.9 66 57% 85 30.1 1019.6
Date Time (hst) Wind (mph) Vis. (mi.) Weather Sky Cond. Air Dwpt Max. Min. Relative Humidity Wind Chill (°F) Heat Index (°F) altimeter (in) sea level (mb) 1 hr 3 hr 6 hr
6 hour
Temperature (ºF) Pressure Precipitation (in)